Rome, GA

2:45 AM EST on January 21, 2017 (GMT -0500)
Rome

Weather History for KRMG - January, 2017

Change the Weather History Date:

Thursday, January 12, 2017

  Actual Average Record
Temperature  
Mean Temperature 63 °F 41 °F  
Max Temperature 73 °F 52 °F 75 °F (2013)
Min Temperature 53 °F 30 °F 21 °F (2004)
Degree Days  
Heating Degree Days 2 24  
Month to date heating degree days 288  
Since 1 July heating degree days 1588  
Growing Degree Days 13 (Base 50)    
Moisture  
Dew Point 52 °F    
Average Humidity 72    
Maximum Humidity 94    
Minimum Humidity 49    
Precipitation  
Precipitation 0.00 in 0.16 in 0.09 in (2015)
Month to date precipitation 1.44  
Year to date precipitation 1.44  
Sea Level Pressure  
Sea Level Pressure 30.28 in    
Wind  
Wind Speed 4 mph (South)    
Max Wind Speed 12 mph    
Max Gust Speed 16 mph    
Visibility 10 miles    
Events Rain    
T = Trace of Precipitation, MM = Missing Value Source: NWS Daily Summary

Daily Weather History Graph

Daily Weather History Graph

Search for Another Location

Airport or City:

Trip Planner

Search our weather history database for the weather conditions in past years. The results will help you decide how hot, cold, wet, or windy it might be!

Date:

Astronomy

Jan. 12, 2017 Rise Set
Actual Time 7:47 AM EST 5:51 PM EST
Civil Twilight 7:19 AM EST 6:18 PM EST
Nautical Twilight 6:48 AM EST 6:49 PM EST
Astronomical Twilight 6:18 AM EST 7:19 PM EST
Moon 6:25 PM EST (1/12) 7:40 AM EST (1/12)
Length of Visible Light 10h 58m
Length of Day
10h 04m
Full, 100% of the Moon is Illuminated
Jan 12
Full
Jan 19
Last Quarter
Jan 27
New
Feb 3
First Quarter
Feb 10
Full

Hourly Weather History & Observations

Time (EST) Temp. Dew Point Humidity Pressure Visibility Wind Dir Wind Speed Gust Speed Precip Events Conditions
12:53 AM 57.9 °F 52.0 °F 81% 30.20 in 10.0 mi SSE 3.5 mph - N/A   Overcast
1:53 AM 57.9 °F 52.0 °F 81% 30.22 in 10.0 mi South 4.6 mph - N/A   Overcast
2:22 AM 57.9 °F 52.0 °F 81% 30.23 in 10.0 mi SSE 3.5 mph - N/A   Overcast
2:53 AM 60.1 °F 52.0 °F 75% 30.22 in 10.0 mi Calm Calm - N/A   Overcast
3:03 AM 59.0 °F 52.0 °F 78% 30.23 in 10.0 mi SE 3.5 mph - N/A   Overcast
3:53 AM 59.0 °F 53.1 °F 81% 30.23 in 10.0 mi Calm Calm - N/A   Overcast
4:53 AM 59.0 °F 52.0 °F 78% 30.24 in 10.0 mi South 3.5 mph - N/A   Overcast
5:53 AM 60.1 °F 52.0 °F 75% 30.25 in 10.0 mi North - - N/A   Overcast
6:10 AM 60.1 °F 52.0 °F 75% 30.27 in 10.0 mi Variable 4.6 mph - N/A   Overcast
6:41 AM 60.1 °F 51.1 °F 72% 30.27 in 10.0 mi SSE 6.9 mph - N/A   Overcast
6:53 AM 59.0 °F 51.1 °F 75% 30.26 in 10.0 mi South 8.1 mph - N/A   Overcast
7:53 AM 59.0 °F 50.0 °F 72% 30.28 in 10.0 mi South 9.2 mph - N/A   Overcast
8:53 AM 60.1 °F 48.9 °F 67% 30.30 in 10.0 mi South 5.8 mph - N/A   Overcast
9:30 AM 61.0 °F 50.0 °F 67% 30.33 in 10.0 mi SSW 3.5 mph - N/A   Overcast
9:53 AM 62.1 °F 50.0 °F 65% 30.32 in 10.0 mi South 4.6 mph - N/A   Overcast
10:46 AM 62.1 °F 51.1 °F 67% 30.35 in 10.0 mi South 5.8 mph - 0.00 in   Overcast
10:53 AM 62.1 °F 51.1 °F 67% 30.34 in 10.0 mi South 5.8 mph - 0.00 in Rain Light Rain
11:22 AM 64.9 °F 52.0 °F 63% 30.34 in 10.0 mi South 8.1 mph - 0.00 in   Overcast
11:53 AM 64.9 °F 52.0 °F 63% 30.32 in 10.0 mi South 9.2 mph - 0.00 in   Overcast
12:53 PM 69.1 °F 54.0 °F 58% 30.28 in 10.0 mi SSW 9.2 mph - N/A   Overcast
1:53 PM 71.1 °F 55.0 °F 57% 30.27 in 10.0 mi West 11.5 mph 16.1 mph N/A   Overcast
2:53 PM 73.0 °F 55.0 °F 53% 30.26 in 10.0 mi SW 9.2 mph - N/A   Overcast
3:53 PM 73.0 °F 55.0 °F 53% 30.27 in 10.0 mi WSW 9.2 mph - N/A   Overcast
4:53 PM 72.0 °F 55.0 °F 55% 30.28 in 10.0 mi SW 3.5 mph - N/A   Overcast
5:53 PM 70.0 °F 55.0 °F 59% 30.28 in 10.0 mi Calm Calm - N/A   Mostly Cloudy
6:53 PM 62.1 °F 54.0 °F 75% 30.30 in 10.0 mi Calm Calm - N/A   Partly Cloudy
7:53 PM 61.0 °F 55.0 °F 81% 30.32 in 10.0 mi Calm Calm - N/A   Mostly Cloudy
8:53 PM 57.9 °F 54.0 °F 87% 30.33 in 10.0 mi Calm Calm - N/A   Mostly Cloudy
9:53 PM 55.9 °F 52.0 °F 87% 30.34 in 10.0 mi Calm Calm - N/A   Clear
10:44 PM 54.0 °F 52.0 °F 93% 30.35 in 1.8 mi Calm Calm - N/A   Clear
10:50 PM 53.6 °F 51.8 °F 94% 30.35 in 3.0 mi Calm Calm - N/A   Clear
10:53 PM 54.0 °F 51.1 °F 90% 30.34 in 7.0 mi Calm Calm - N/A   Clear